Location: Byhalia Creek
(34.8270°N, 89.8040°W)
Time: 17:34:07
(UTC+00:00)

ADEOS Rocket - Pass Details

Date: 22 April 2026
Orbit: 859 x 1304 km, 98.8° (Epoch: 9 May)

Event Time Altitude Azimuth Distance (km) Brightness Sun altitude
Rises 07:39:25 0° 16° (NNE) 4,228 7.2 -37.1°
Reaches altitude 10° 07:42:07 10° 19° (NNE) 3,287 6.5 -36.8°
Enters shadow 07:49:37 66° 94° (E) 1,411 3.7 -36.0°
